Location: Erp
(42.9417°N, 1.2009°E)
Time: 19:52:37
(UTC+00:00)

Cosmos 1656 - Pass Details

Date: 12 January 2026
Orbit: 797 x 847 km, 71.1° (Epoch: 13 February)

Event Time Altitude Azimuth Distance (km) Brightness Sun altitude
Rises 18:29:15 0° 341° (NNW) 3,398 6.9 -19.0°
Reaches altitude 10° 18:31:54 10° 350° (N) 2,453 6.1 -19.5°
Enters shadow 18:37:01 37° 55° (NE) 1,259 4.1 -20.4°
